Dallas/Ft Worth, TX

3:47 AM CST on November 20, 2019 (GMT -0600)
Dallas-Fort Worth International

Weather History for KDFW - September, 2019

Change the Weather History Date:

Thursday, September 19, 2019

  Actual Average Record
Temperature  
Mean Temperature 78 °F 77 °F  
Max Temperature 82 °F 87 °F 102 °F (1956)
Min Temperature 73 °F 66 °F 45 °F (1981)
Degree Days  
Heating Degree Days 0 0  
Month to date heating degree days 0 0  
Since 1 July heating degree days 0 0  
Cooling Degree Days 13 12  
Month to date cooling degree days 392 285  
Year to date cooling degree days 2594 2467  
Growing Degree Days 28 (Base 50)    
Moisture  
Dew Point 70 °F    
Average Humidity 79    
Maximum Humidity 87    
Minimum Humidity 65    
Precipitation  
Precipitation T in 0.07 in 3.66 in (1958)
Month to date precipitation T 1.70  
Year to date precipitation 27.13 25.81  
Sea Level Pressure  
Sea Level Pressure 29.86 in    
Wind  
Wind Speed 7 mph ()    
Max Wind Speed 17 mph    
Max Gust Speed 22 mph    
Visibility 9.9 miles    
Events Rain    
T = Trace of Precipitation, MM = Missing Value Source: Averaged Metar Reports

Daily Weather History Graph

Daily Weather History Graph

Search for Another Location

Airport or City:

Astronomy

Sep. 19, 2019 Rise Set
Actual Time 7:14 AM CDT 7:29 PM CDT
Civil Twilight 6:49 AM CDT 7:53 PM CDT
Nautical Twilight 6:20 AM CDT 8:22 PM CDT
Astronomical Twilight 5:51 AM CDT 8:51 PM CDT
Moon 10:55 PM CDT (9/19) 12:03 PM CDT (9/19)
Length of Visible Light 13h 04m
Length of Day
12h 14m
Waning Gibbous, 74% of the Moon is Illuminated
Sep 19
Waning Gibbous
Sep 21
Last Quarter
Sep 28
New
Oct 5
First Quarter
Oct 13
Full

Hourly Weather History & Observations

Time (CDT) Temp. Heat Index Dew Point Humidity Pressure Visibility Wind Dir Wind Speed Gust Speed Precip Events Conditions
12:53 AM 78.1 °F - 70.0 °F 76% 29.87 in 10.0 mi ESE 6.9 mph - N/A   Partly Cloudy
1:53 AM 77.0 °F - 70.0 °F 79% 29.86 in 10.0 mi ESE 6.9 mph - N/A   Partly Cloudy
2:53 AM 75.9 °F - 70.0 °F 82% 29.86 in 10.0 mi ESE 9.2 mph - N/A   Partly Cloudy
3:53 AM 75.0 °F - 70.0 °F 84% 29.85 in 10.0 mi East 3.5 mph - N/A   Partly Cloudy
4:14 AM 75.0 °F - 70.0 °F 84% 29.87 in 10.0 mi East 4.6 mph - N/A   Mostly Cloudy
4:53 AM 75.9 °F - 70.0 °F 82% 29.85 in 10.0 mi ESE 4.6 mph - N/A   Mostly Cloudy
5:53 AM 75.9 °F - 70.0 °F 82% 29.85 in 10.0 mi NNE 5.8 mph - N/A   Mostly Cloudy
6:53 AM 75.9 °F - 70.0 °F 82% 29.86 in 10.0 mi ENE 8.1 mph - N/A   Overcast
7:53 AM 75.9 °F - 70.0 °F 82% 29.87 in 10.0 mi ENE 6.9 mph - N/A   Overcast
8:53 AM 77.0 °F - 70.0 °F 79% 29.88 in 10.0 mi ENE 8.1 mph - N/A   Overcast
9:06 AM 77.0 °F - 71.1 °F 82% 29.90 in 10.0 mi NE 10.4 mph - N/A   Overcast
9:17 AM 77.0 °F - 71.1 °F 82% 29.91 in 10.0 mi ENE 6.9 mph - N/A   Overcast
9:53 AM 78.1 °F - 71.1 °F 79% 29.88 in 10.0 mi NE 9.2 mph - 0.00 in   Mostly Cloudy
10:53 AM 78.1 °F - 71.1 °F 79% 29.88 in 7.0 mi ENE 9.2 mph - 0.00 in   Overcast
11:53 AM 77.0 °F - 72.0 °F 84% 29.89 in 9.0 mi NE 8.1 mph - 0.00 in   Overcast
12:53 PM 80.1 °F 83.2 °F 70.0 °F 71% 29.88 in 10.0 mi ENE 15.0 mph - 0.00 in Rain Light Rain
1:53 PM 79.0 °F - 71.1 °F 77% 29.86 in 10.0 mi ENE 9.2 mph - 0.00 in   Overcast
2:53 PM 82.0 °F 85.9 °F 70.0 °F 67% 29.85 in 10.0 mi NE 10.4 mph - N/A   Overcast
3:53 PM 78.1 °F - 72.0 °F 81% 29.84 in 10.0 mi SSE 4.6 mph - 0.00 in   Overcast
4:53 PM 81.0 °F 84.4 °F 70.0 °F 69% 29.83 in 10.0 mi East 9.2 mph - N/A   Overcast
5:53 PM 81.0 °F 84.1 °F 69.1 °F 67% 29.82 in 10.0 mi East 10.4 mph - N/A   Mostly Cloudy
6:53 PM 78.1 °F - 69.1 °F 74% 29.82 in 10.0 mi ENE 11.5 mph - N/A   Mostly Cloudy
7:53 PM 77.0 °F - 69.1 °F 76% 29.82 in 10.0 mi East 9.2 mph - N/A   Mostly Cloudy
8:53 PM 75.0 °F - 68.0 °F 79% 29.83 in 10.0 mi ESE 6.9 mph - N/A   Scattered Clouds
9:10 PM 75.0 °F - 68.0 °F 79% 29.86 in 10.0 mi ESE 10.4 mph - N/A   Mostly Cloudy
9:53 PM 75.9 °F - 69.1 °F 79% 29.86 in 10.0 mi ESE 5.8 mph - N/A   Mostly Cloudy
10:43 PM 75.0 °F - 69.1 °F 82% 29.90 in 10.0 mi SE 4.6 mph - N/A   Overcast
10:53 PM 75.0 °F - 69.1 °F 82% 29.87 in 10.0 mi SE 5.8 mph - N/A   Overcast
11:53 PM 73.9 °F - 70.0 °F 87% 29.88 in 10.0 mi SE 5.8 mph - N/A   Mostly Cloudy